Date,TemperatureHighF,TemperatureAvgF,TemperatureLowF,DewpointHighF,DewpointAvgF,DewpointLowF,HumidityHigh,HumidityAvg,HumidityLow,PressureMaxIn,PressureMinIn,WindSpeedMaxMPH,WindSpeedAvgMPH,GustSpeedMaxMPH,PrecipitationSumIn
2013-1-1,22.9,10.7,-6.9,15.0,4.1,-11.0,84,75,66,30.20,30.02,17,5,25,0.00
2013-1-2,18.3,15.7,13.0,11.0,8.8,7.0,79,74,66,30.22,30.02,8,3,18,0.00
2013-1-4,31.7,28.8,27.9,25.0,18.8,-99.9,85,74,65,30.09,0.00,15,-26,25,0.00
2013-1-5,31.5,24.7,17.5,22.0,18.7,12.0,88,78,65,30.29,29.95,15,3,18,0.00
2013-1-6,26.1,22.1,13.8,23.0,16.8,6.0,92,80,63,30.34,29.89,7,2,12,0.00
2013-1-7,38.0,28.0,12.7,31.0,21.4,6.0,88,77,67,30.35,29.93,19,7,25,0.02
2013-1-8,38.7,34.1,28.2,32.0,29.5,25.0,92,84,68,30.20,29.97,13,3,17,0.02
2013-1-9,38.2,35.0,32.5,33.0,29.7,26.0,91,81,71,30.39,29.83,19,8,29,0.01
2013-1-10,37.8,33.4,25.7,33.0,28.1,22.0,90,81,65,30.61,30.29,10,3,18,0.01
2013-1-11,38.9,36.3,34.3,38.0,34.8,32.0,97,94,86,30.28,29.74,12,3,16,0.60
2013-1-12,42.0,17.9,-90.0,41.0,2.1,-99.9,97,73,79,30.03,29.71,25,5,28,0.01
2013-1-13,34.0,31.8,28.3,32.0,28.5,24.0,93,88,84,30.02,29.90,7,3,11,0.01
2013-1-14,28.0,23.9,19.7,25.0,17.2,12.0,89,76,61,30.39,29.94,18,7,22,0.02
2013-1-15,27.6,21.7,12.5,23.0,15.8,8.0,87,78,63,30.41,30.11,20,8,23,0.00
2013-1-16,29.5,28.5,27.6,28.0,23.7,22.0,94,82,75,30.10,29.60,19,10,26,0.00
2013-1-17,12.5,6.2,-6.7,8.0,-1.6,-99.9,88,75,59,30.37,30.25,20,-11,25,0.00
2013-1-18,14.8,2.8,-7.3,12.0,-0.5,-11.0,89,86,82,30.40,30.20,8,1,14,0.00
2013-1-21,9.3,2.5,-3.5,5.0,-4.4,-99.9,89,77,74,30.12,29.95,7,-14,10,0.00
2013-1-22,-3.1,-11.2,-19.7,-10.0,-18.5,-25.0,78,71,55,30.34,30.11,6,1,9,0.00
2013-1-23,6.5,-4.1,-21.3,1.0,-9.6,-26.0,83,77,70,30.39,30.18,5,1,11,0.00
2013-1-24,4.9,-6.3,-17.2,-4.0,-12.9,-22.0,89,73,58,30.75,30.40,17,2,17,0.00
2013-1-25,18.3,8.3,-8.0,14.0,4.6,-13.0,87,84,80,30.59,30.13,7,1,10,0.00
2013-1-26,21.9,11.2,-2.1,13.0,6.4,-6.0,89,81,66,30.53,30.17,5,1,9,0.12
2013-1-27,28.7,20.3,10.7,26.0,16.3,6.0,89,84,78,30.54,30.24,7,2,11,0.12
2013-1-28,31.2,-46.1,-90.0,30.0,-54.9,-99.9,95,33,91,30.23,29.94,8,-19,17,0.03
2013-1-29,-24.6,-79.4,-90.0,-99.9,-99.9,-99.9,0,0,100,30.22,29.75,9,3,18,0.41
2013-1-30,19.5,-23.6,-45.5,17.0,-83.8,-99.9,92,13,83,29.74,29.23,10,4,21,0.24
2013-1-31,10.9,5.6,2.1,6.0,0.7,-3.0,92,80,74,29.91,29.27,13,6,15,0.24